TimeAKST,TemperatureF,Dew PointF,Humidity,Sea Level PressureIn,VisibilityMPH,Wind Direction,Wind SpeedMPH,Gust SpeedMPH,PrecipitationIn,Events,Conditions,WindDirDegrees,DateUTC
12:22 AM,-18.4,-23.8,76,30.30,2.5,ENE,10.4,-,N/A,Snow,Light Snow,60,2013-02-01 09:22:00
12:53 AM,-18.0,-23.1,78,30.32,2.5,NE,10.4,-,N/A,Snow,Light Snow,50,2013-02-01 09:53:00
1:01 AM,-18.4,-23.8,76,30.31,3.0,ENE,9.2,-,N/A,Snow,Light Snow,60,2013-02-01 10:01:00
3:17 AM,-18.4,-23.8,76,30.35,2.5,NE,9.2,-,N/A,Snow,Light Snow,50,2013-02-01 12:17:00
3:38 AM,-18.4,-23.8,76,30.35,-9999.0,North,-9999.0,-,N/A,,Unknown,0,2013-02-01 12:38:00
3:53 AM,-18.0,-23.1,78,30.36,8.0,North,-9999.0,-,N/A,,Unknown,0,2013-02-01 12:53:00
4:53 AM,-18.0,-23.1,78,30.38,8.0,North,-9999.0,-,N/A,,Overcast,0,2013-02-01 13:53:00
5:53 AM,-18.0,-23.1,78,30.39,4.0,North,-9999.0,-,N/A,,Overcast,0,2013-02-01 14:53:00
6:37 AM,-18.4,-23.8,76,30.39,5.0,North,-9999.0,-,N/A,,Haze,0,2013-02-01 15:37:00
6:49 AM,-18.4,-23.8,76,30.39,7.0,North,-9999.0,-,N/A,,Overcast,0,2013-02-01 15:49:00
6:53 AM,-18.0,-23.1,78,30.40,9.0,North,-9999.0,-,N/A,,Overcast,0,2013-02-01 15:53:00
7:22 AM,-18.4,-23.8,76,30.40,5.0,North,-9999.0,-,N/A,Snow,Light Snow,0,2013-02-01 16:22:00
7:50 AM,-18.4,-23.8,76,30.40,10.0,North,-9999.0,-,N/A,,Overcast,0,2013-02-01 16:50:00
7:53 AM,-18.9,-23.1,81,30.41,10.0,North,-9999.0,-,N/A,,Overcast,0,2013-02-01 16:53:00
8:53 AM,-18.0,-23.1,78,30.43,6.0,North,-9999.0,-,N/A,,Haze,0,2013-02-01 17:53:00
9:53 AM,-18.0,-23.1,78,30.44,9.0,NE,8.1,-,N/A,,Unknown,50,2013-02-01 18:53:00
10:53 AM,-18.0,-22.0,82,30.46,1.8,NE,8.1,-,N/A,Snow,Light Snow,50,2013-02-01 19:53:00
11:03 AM,-18.4,-22.0,84,30.45,3.0,NE,8.1,-,N/A,,Overcast,50,2013-02-01 20:03:00
12:53 PM,-20.0,-25.1,78,30.48,10.0,NE,9.2,-,N/A,,Mostly Cloudy,40,2013-02-01 21:53:00
1:53 PM,-22.0,-27.0,77,30.49,10.0,NE,10.4,-,N/A,,Clear,40,2013-02-01 22:53:00
2:53 PM,-24.0,-27.9,82,30.50,10.0,NE,8.1,-,N/A,,Clear,50,2013-02-01 23:53:00
3:53 PM,-24.0,-29.0,77,30.50,-9999.0,North,-9999.0,-,N/A,,Unknown,0,2013-02-02 00:53:00
4:53 PM,-26.0,-29.9,81,30.50,10.0,NE,8.1,-,N/A,,Clear,50,2013-02-02 01:53:00
5:53 PM,-27.0,-31.0,81,30.48,10.0,NE,10.4,-,N/A,,Clear,50,2013-02-02 02:53:00
6:53 PM,-27.9,-32.1,81,30.48,9.0,ENE,9.2,-,N/A,,Clear,60,2013-02-02 03:53:00
7:53 PM,-27.9,-32.1,81,30.47,10.0,North,-9999.0,-,N/A,,Clear,0,2013-02-02 04:53:00
8:53 PM,-27.9,-33.0,77,30.46,10.0,North,-9999.0,-,N/A,,Clear,0,2013-02-02 05:53:00
9:53 PM,-27.9,-33.0,77,30.46,-9999.0,North,-9999.0,-,N/A,,Clear,0,2013-02-02 06:53:00
10:53 PM,-27.9,-33.0,77,30.45,9.0,NE,9.2,-,N/A,,Clear,50,2013-02-02 07:53:00
11:53 PM,-27.9,-33.0,77,30.42,4.0,NE,12.7,-,N/A,,Haze,50,2013-02-02 08:53:00